DW6169 Weather Reports


Display with metric or nautical units.
time (UTC)temp
F
wind
direction
speed
MPH
gust
MPH
rain 1hr
in
rain 24hr
in
rain mn
in
humidity
%
barometer
mb
20210621140033 86 171 0.0 0.0 0.00 0.00 0.00 80 1019.4
20210621134537 86 248 0.0 0.0 0.00 0.00 0.00 81 1019.3
20210621133050 85 140 0.0 0.0 0.00 0.00 0.00 83 1019.1
20210621131549 84 257 0.0 0.0 0.00 0.00 0.00 87 1019.1
20210621130055 84 234 0.0 0.0 0.00 0.00 0.00 90 1019.0
20210621124603 83 186 0.0 0.0 0.00 0.00 0.00 91 1018.8
20210621123026 83 172 0.0 0.0 0.00 0.00 0.00 93 1018.6
20210621121542 82 168 0.0 0.0 0.00 0.00 0.00 93 1018.6
20210621120031 82 172 0.0 0.0 0.00 0.00 0.00 93 1018.3
20210621114515 81 155 0.0 0.0 0.00 0.00 0.00 94 1018.0
20210621113128 81 155 0.0 0.0 0.00 0.00 0.00 94 1017.8
20210621111653 81 144 0.0 0.0 0.00 0.00 0.00 94 1017.6
20210621110134 81 144 0.0 0.0 0.00 0.00 0.00 94 1017.4
20210621104649 81 144 0.0 0.0 0.00 0.00 0.00 94 1017.3
20210621103112 81 144 0.0 0.0 0.00 0.00 0.00 94 1017.2
20210621101643 81 84 0.0 0.0 0.00 0.00 0.00 94 1017.1
20210621100128 80 98 0.0 0.0 0.00 0.00 0.00 94 1016.9
20210621094647 80 98 0.0 0.0 0.00 0.00 0.00 94 1016.8
20210621093057 80 98 0.0 0.0 0.00 0.00 0.00 94 1016.7
20210621091557 80 98 0.0 0.0 0.00 0.00 0.00 94 1016.8
20210621090126 80 98 0.0 0.0 0.00 0.00 0.00 94 1016.6
20210621084630 80 98 0.0 0.0 0.00 0.00 0.00 94 1016.6
20210621083108 80 98 0.0 0.0 0.00 0.00 0.00 94 1016.5
20210621081602 80 98 0.0 0.0 0.00 0.00 0.00 94 1016.5
20210621080113 80 98 0.0 0.0 0.00 0.00 0.00 94 1016.6
20210621074634 80 316 0.0 0.0 0.00 0.00 0.00 93 1016.5
20210621073043 80 316 0.0 0.0 0.00 0.00 0.00 93 1016.5
20210621071610 80 316 0.0 0.0 0.00 0.00 0.00 93 1016.5
20210621070045 80 316 0.0 0.0 0.00 0.00 0.00 93 1016.6
20210621064629 80 316 0.0 0.0 0.00 0.00 0.00 93 1016.7
20210621063117 80 316 0.0 0.0 0.00 0.00 0.00 93 1016.9
20210621061547 79 316 0.0 0.0 0.00 0.00 0.00 93 1017.0
20210621060044 79 316 0.0 0.0 0.00 0.00 0.00 92 1017.2
20210621054540 78 316 0.0 0.0 0.00 0.00 0.00 92 1017.4
20210621053038 78 316 0.0 0.0 0.00 0.00 0.00 92 1017.6
20210621051531 78 316 0.0 0.0 0.00 0.00 0.00 92 1017.6
20210621050046 78 316 0.0 0.0 0.00 0.00 0.00 91 1018.0
20210621044522 78 316 0.0 0.0 0.00 0.00 0.00 91 1018.0
20210621043105 78 316 0.0 0.0 0.00 0.00 0.00 91 1018.3
20210621041554 78 316 0.0 0.0 0.00 0.00 0.00 91 1018.4
20210621040022 78 316 0.0 0.0 0.00 0.00 0.00 91 1018.4
20210621034535 78 316 0.0 0.0 0.00 0.00 0.00 91 1018.5
20210621033034 78 316 0.0 0.0 0.00 0.00 0.00 90 1018.5
20210621031529 78 316 0.0 0.0 0.00 0.00 0.00 90 1018.5
20210621030016 78 316 0.0 0.0 0.00 0.00 0.00 90 1018.5
20210621024513 79 316 0.0 0.0 0.00 0.00 0.00 90 1018.5
20210621023055 79 316 0.0 0.0 0.00 0.00 0.00 89 1018.6
20210621021515 79 316 0.0 0.0 0.00 0.00 0.00 88 1018.5
20210621020029 79 316 0.0 0.0 0.00 0.00 0.00 88 1018.2
20210621014507 79 316 0.0 0.0 0.00 0.00 0.00 87 1018.1
20210621013024 79 316 0.0 0.0 0.00 0.00 0.00 86 1018.0
20210621011513 79 316 0.0 0.0 0.00 0.00 0.00 85 1018.1
20210621010005 79 316 0.0 0.0 0.00 0.00 0.00 84 1018.3
20210621004508 80 316 0.0 0.0 0.00 0.00 0.00 83 1018.2
20210621003018 80 316 0.0 0.0 0.00 0.00 0.00 81 1017.7
20210621001504 80 316 0.0 0.0 0.00 0.00 0.00 78 1017.4
20210621000003 80 316 0.0 0.0 0.00 0.00 0.00 77 1017.0
20210620234501 80 316 0.0 0.0 0.00 0.00 0.00 76 1017.0
20210620233004 80 316 0.0 0.0 0.00 0.00 0.00 74 1017.1
20210620231502 80 316 0.0 0.0 0.00 0.00 0.00 75 1017.0
20210620230253 80 17 0.0 0.0 0.00 0.00 0.00 77 1017.0
20210620224722 79 22 0.0 0.0 0.00 0.00 0.00 77 1016.4
20210620223112 79 13 0.0 0.0 0.00 0.00 0.00 77 1016.9
20210620221647 79 13 0.0 0.0 0.00 0.00 0.00 76 1017.0
20210620220230 80 13 0.0 0.0 0.00 0.00 0.00 75 1017.3
20210620214646 80 13 0.0 0.0 0.00 0.00 0.00 74 1017.1
20210620213126 81 44 1.0 0.0 0.00 0.00 0.00 71 1018.0
20210620211611 85 318 3.0 0.0 0.00 0.00 0.00 66 1018.6
20210620210142 88 161 0.0 0.0 0.00 0.00 0.00 73 1017.3
20210620204651 89 149 0.0 0.0 0.00 0.00 0.00 71 1016.2
20210620203158 89 141 0.0 0.0 0.00 0.00 0.00 71 1016.0
20210620201601 90 193 0.0 0.0 0.00 0.00 0.00 69 1015.9
20210620200058 90 128 0.0 0.0 0.00 0.00 0.00 72 1016.2
20210620194611 90 147 1.0 0.0 0.00 0.00 0.00 72 1016.3
20210620193259 91 136 1.0 0.0 0.00 0.00 0.00 71 1016.6
20210620191719 91 163 0.0 0.0 0.00 0.00 0.00 71 1016.7
20210620190118 90 117 1.0 0.0 0.00 0.00 0.00 75 1016.6
20210620184631 88 171 0.0 0.0 0.00 0.00 0.00 79 1017.0
20210620183050 88 146 0.0 0.0 0.00 0.00 0.00 80 1017.1
20210620181554 89 175 0.0 0.0 0.00 0.00 0.00 77 1017.2
20210620180125 91 317 0.0 0.0 0.00 0.00 0.00 74 1017.1
20210620174707 93 144 1.0 0.0 0.00 0.00 0.00 74 1017.3
20210620173054 93 119 0.0 0.0 0.00 0.00 0.00 71 1017.4
20210620171631 92 216 1.0 0.0 0.00 0.00 0.00 74 1017.7
20210620170104 93 131 1.0 0.0 0.00 0.00 0.00 72 1017.7
20210620164535 90 134 0.0 0.0 0.00 0.00 0.00 69 1017.8
20210620163106 90 219 0.0 0.0 0.00 0.00 0.00 69 1017.9
20210620161621 92 225 0.0 0.0 0.00 0.00 0.00 66 1018.1
20210620160050 91 182 0.0 0.0 0.00 0.00 0.00 71 1018.2
20210620154554 92 255 0.0 0.0 0.00 0.00 0.00 70 1018.4
20210620153024 89 205 0.0 0.0 0.00 0.00 0.00 74 1018.6
20210620151538 91 154 0.0 0.0 0.00 0.00 0.00 73 1018.7
20210620150021 90 143 0.0 0.0 0.00 0.00 0.00 78 1018.9
20210620144512 88 198 0.0 0.0 0.00 0.00 0.00 80 1019.0
20210620143013 88 267 0.0 0.0 0.00 0.00 0.00 81 1018.9
20210620141509 87 258 0.0 0.0 0.00 0.00 0.00 81 1018.7